Flag for Germany Weather past 2 weeks in Ehingen (Donau), Baden-Württemberg, Germany

Now
54 °F

Scattered clouds.


Feels Like: 50 °F
Forecast: 41 / 62 °F
Wind: 12 mph from Northeast

Location: Laupheim Airport

Current Time: May 22, 2015 at 11:06:54 AM

Latest Report: May 22, 2015 at 10:20 AM


Visibility: N/A

Pressure: 30.27 "Hg

Humidity: 67%

Dew point: 43 °F

Location of Ehingen (Donau)Location

Historic Weather in Ehingen (Donau) — Graph

°F

Ehingen (Donau) temperature yesterday

Maximum temperature yesterday: 54 °F (at 4:20 PM)
Minimum temperature yesterday: 43 °F (at 1:20 AM)
Average temperature yesterday: 48 °F

Past Weeks' High & Low Weather Summary

 TemperatureHumidityPressure
High81 °F (May 12, 4:20 PM)100% (May 11, 5:20 AM)30.36 "Hg (May 11, 5:20 AM)
Low39 °F (May 22, 4:20 AM)34% (May 12, 2:20 PM)29.77 "Hg (May 18, 5:20 PM)
Average57 °F74%30.08 "Hg
* Reported May 7 9:20 AM — May 22 9:20 AM, Ehingen (Donau), Weather by CustomWeather, © 2015

Note: Actual official high and low records may vary slightly from our data, if they occured in-between our weather recording intervals... More about our weather records

Advertising

Ehingen (Donau) weather history for previous 24 hours

 ConditionsComfort  
Time TempWeatherWind HumidityBarometerVisibility
9:20 AM
Fri, May 22
50 °FPassing clouds.6 mph76%30.27 "HgN/A
8:20 AM46 °FPassing clouds.7 mph76%30.27 "HgN/A
7:20 AM43 °FPassing clouds.2 mph87%30.27 "HgN/A
6:20 AM39 °FFog.1 mph100%30.27 "HgN/A
5:20 AM39 °FFog.1 mph100%30.27 "HgN/A
5:01 AM39 °FFog.2 mph100%30.27 "HgN/A
4:20 AM39 °FFog.No wind100%30.30 "Hg1 mi
3:20 AM41 °FFog.3 mph100%30.30 "Hg1 mi
2:20 AM43 °FFog.No wind100%30.30 "Hg1 mi
1:20 AM45 °FPassing clouds.No wind93%30.30 "HgN/A
12:20 AM46 °FPassing clouds.3 mph93%30.30 "HgN/A
11:20 PM
Thu, May 21
48 °FPassing clouds.5 mph87%30.30 "HgN/A
10:20 PM48 °FPassing clouds.8 mph94%30.30 "HgN/A
9:20 PM50 °FPartly sunny.5 mph82%30.27 "HgN/A
8:20 PM52 °FPartly sunny.5 mph77%30.24 "HgN/A
7:20 PM54 °FBroken clouds.2 mph58%30.24 "HgN/A
6:20 PM54 °FPartly sunny.3 mph58%30.24 "HgN/A
5:20 PM54 °FPartly sunny.7 mph63%30.21 "HgN/A
4:20 PM54 °FPartly sunny.5 mph63%30.21 "HgN/A
3:20 PM52 °FPartly sunny.6 mph62%30.21 "HgN/A
2:20 PM52 °FBroken clouds.7 mph62%30.21 "HgN/A
1:20 PM52 °FBroken clouds.6 mph62%30.21 "HgN/A
12:20 PM50 °FSprinkles. Partly sunny.6 mph71%30.21 "HgN/A
11:20 AM52 °FBroken clouds.5 mph67%30.18 "HgN/A
Weather by CustomWeather, © 2015

See weather overviewHow to use our weather pages